Temp
-7 -7 -7 -7 -7 -7 -7 -8 -8 -8 -7 -8 -7 -8 -8 -8 -7 -7 -6 -6 -6 -6 -6 -6 -6 -6 -6 -6 -6 -6 -6 -5 -5 -5 -5 -5 -4 -4 -4 -5 -5 -5 -5 -5 -5 -4 -4 -4 -4
-7 -7 -7 -7 -7 -7 -8 -9 -10 -9 -9 -8 -7 -8 -9 -9 -8 -8 -7 -7 -6 -7 -6 -6 -6 -6 -6 -6 -6 -6 -6 -6 -5 -5 -5 -5 -5 -5 -4 -5 -5 -5 -5 -5 -5 -5 -5 -5 -4
-7 -7 -7 -7 -7 -8 -9 -10 -10 -10 -8 -8 -8 -8 -9 -8 -7 -8 -8 -7 -7 -7 -7 -6 -6 -6 -6 -6 -6 -6 -6 -6 -6 -5 -5 -5 -5 -5 -4 -5 -5 -5 -5 -5 -5 -5 -5 -5 -5
-8 -8 -8 -8 -8 -8 -9 -10 -12 -11 -10 -9 -9 -9 -8 -8 -8 -8 -8 -8 -7 -7 -7 -7 -7 -6 -6 -6 -6 -6 -6 -6 -6 -6 -5 -5 -5 -5 -5 -5 -5 -5 -5 -5 -5 -5 -5 -5 -5
-8 -9 -9 -9 -9 -9 -10 -11 -11 -10 -11 -10 -10 -10 -8 -8 -8 -8 -9 -8 -8 -8 -8 -7 -7 -7 -6 -6 -6 -6 -6 -6 -6 -6 -6 -5 -5 -5 -5 -5 -5 -5 -5 -5 -4 -5 -5 -5 -5
-9 -9 -10 -10 -11 -11 -11 -12 -12 -11 -11 -12 -12 -10 -9 -8 -8 -9 -9 -9 -8 -8 -8 -7 -7 -7 -7 -7 -6 -6 -6 -6 -6 -6 -6 -6 -6 -5 -5 -5 -5 -5 -5 -5 -5 -5 -5 -5 -5
-9 -10 -10 -11 -11 -12 -12 -14 -13 -11 -11 -11 -11 -10 -9 -9 -9 -9 -9 -9 -9 -9 -9 -8 -7 -7 -7 -7 -7 -7 -6 -6 -7 -7 -6 -6 -6 -6 -5 -5 -5 -5 -5 -5 -5 -5 -5 -5 -5
-10 -10 -11 -12 -12 -12 -13 -13 -12 -13 -13 -12 -12 -11 -9 -8 -9 -10 -9 -9 -9 -8 -9 -8 -8 -8 -8 -8 -7 -7 -7 -7 -7 -7 -7 -6 -6 -6 -6 -6 -6 -6 -6 -6 -6 -5 -6 -6 -6
-11 -11 -11 -12 -12 -12 -13 -13 -13 -13 -13 -12 -12 -11 -10 -11 -10 -11 -11 -8 -9 -9 -9 -9 -9 -8 -8 -8 -8 -7 -7 -7 -7 -7 -7 -7 -6 -6 -6 -6 -6 -6 -6 -6 -6 -6 -6 -6 -6
-11 -11 -12 -12 -13 -13 -13 -13 -13 -13 -13 -13 -12 -13 -11 -11 -12 -10 -11 -9 -10 -9 -9 -9 -9 -8 -8 -8 -8 -8 -7 -7 -8 -8 -7 -7 -7 -7 -7 -7 -6 -6 -6 -7 -7 -6 -6 -7 -7
-11 -12 -12 -12 -12 -13 -13 -14 -14 -13 -13 -13 -13 -13 -12 -11 -11 -11 -12 -12 -10 -10 -9 -10 -9 -9 -8 -8 -8 -8 -8 -7 -8 -8 -8 -8 -7 -8 -7 -7 -7 -7 -7 -7 -7 -7 -7 -7 -7
-11 -12 -12 -12 -12 -13 -13 -14 -14 -13 -13 -13 -13 -13 -13 -12 -11 -12 -11 -11 -10 -11 -10 -10 -9 -9 -9 -9 -9 -8 -8 -8 -8 -8 -8 -8 -7 -8 -8 -7 -7 -7 -7 -7 -7 -7 -7 -7 -7
-12 -12 -12 -13 -13 -13 -13 -14 -13 -13 -13 -13 -13 -13 -13 -13 -13 -13 -12 -12 -11 -11 -10 -11 -10 -10 -10 -10 -9 -9 -9 -8 -8 -8 -8 -8 -8 -8 -8 -8 -8 -8 -8 -8 -8 -8 -8 -8 -8
-12 -12 -13 -13 -13 -13 -13 -14 -13 -13 -13 -13 -13 -13 -13 -13 -13 -13 -13 -12 -11 -12 -12 -11 -11 -11 -10 -11 -10 -9 -10 -9 -9 -8 -8 -9 -8 -9 -9 -9 -8 -8 -8 -8 -8 -8 -8 -8 -8
-12 -12 -12 -13 -13 -13 -14 -14 -14 -13 -13 -13 -13 -13 -13 -13 -14 -14 -13 -12 -12 -11 -11 -11 -12 -11 -11 -11 -10 -10 -10 -9 -9 -9 -8 -9 -9 -9 -9 -9 -9 -9 -9 -9 -9 -9 -9 -9 -8
-12 -12 -12 -13 -14 -14 -13 -14 -14 -13 -13 -14 -13 -13 -13 -13 -13 -13 -14 -13 -12 -12 -11 -12 -12 -11 -11 -11 -10 -11 -10 -10 -10 -9 -9 -9 -9 -10 -10 -10 -10 -9 -9 -10 -9 -9 -9 -9 -9
-11 -13 -13 -14 -13 -14 -14 -13 -13 -14 -14 -14 -14 -14 -14 -13 -13 -13 -14 -14 -13 -13 -12 -12 -12 -12 -10 -11 -11 -11 -11 -10 -10 -9 -9 -9 -10 -10 -10 -10 -10 -10 -10 -10 -10 -10 -10 -10 -10
-13 -13 -13 -13 -14 -14 -14 -14 -14 -14 -13 -13 -13 -14 -13 -14 -14 -14 -14 -14 -14 -13 -12 -12 -12 -12 -11 -11 -11 -12 -11 -10 -10 -9 -10 -10 -11 -11 -11 -10 -10 -10 -10 -10 -10 -10 -10 -10 -10
-12 -13 -13 -13 -14 -14 -14 -13 -13 -13 -14 -14 -13 -13 -14 -14 -14 -14 -14 -14 -14 -13 -13 -12 -12 -12 -11 -11 -12 -11 -11 -11 -10 -10 -10 -11 -11 -11 -11 -11 -11 -11 -11 -11 -11 -11 -11 -11 -10
-12 -12 -13 -13 -13 -14 -14 -13 -13 -14 -14 -14 -14 -14 -14 -14 -14 -14 -14 -14 -14 -13 -13 -12 -12 -11 -9 -11 -12 -12 -12 -11 -11 -11 -11 -12 -12 -12 -12 -11 -11 -11 -11 -11 -11 -11 -11 -11 -11
-12 -12 -13 -13 -14 -13 -14 -14 -14 -15 -15 -15 -15 -15 -15 -15 -14 -14 -14 -14 -14 -13 -13 -12 -12 -11 -10 -11 -12 -12 -12 -11 -11 -12 -12 -12 -11 -12 -12 -11 -11 -11 -11 -11 -11 -11 -11 -11 -11
-12 -12 -13 -13 -14 -14 -14 -15 -15 -16 -16 -15 -14 -15 -15 -15 -15 -15 -15 -14 -14 -13 -13 -13 -12 -12 -12 -11 -12 -12 -12 -12 -12 -12 -12 -12 -12 -11 -11 -11 -11 -11 -11 -11 -11 -11 -11 -11 -11
-12 -12 -13 -13 -13 -14 -15 -15 -15 -15 -16 -15 -15 -15 -15 -16 -15 -15 -15 -15 -14 -13 -13 -13 -13 -12 -11 -11 -11 -12 -13 -13 -13 -12 -12 -11 -12 -12 -11 -11 -11 -11 -11 -11 -11 -11 -11 -11 -11
-12 -12 -13 -13 -13 -14 -15 -14 -15 -15 -15 -15 -15 -16 -16 -16 -16 -16 -15 -15 -14 -13 -13 -14 -13 -12 -13 -11 -10 -11 -10 -13 -12 -12 -11 -11 -12 -12 -11 -11 -11 -11 -11 -11 -11 -11 -11 -11 -12
-12 -13 -12 -13 -14 -14 -15 -14 -15 -15 -15 -15 -15 -16 -17 -17 -16 -15 -15 -15 -14 -14 -14 -14 -14 -13 -13 -12 -12 -12 -12 -13 -12 -12 -12 -12 -12 -12 -11 -11 -11 -11 -11 -11 -11 -11 -11 -11 -12
-12 -12 -12 -13 -13 -14 -14 -14 -15 -14 -15 -15 -16 -16 -16 -16 -16 -16 -15 -15 -15 -15 -15 -14 -14 -14 -14 -14 -14 -14 -13 -13 -13 -12 -12 -13 -12 -12 -12 -11 -11 -12 -11 -11 -12 -12 -11 -11 -13
-12 -12 -13 -13 -13 -13 -14 -15 -15 -15 -15 -15 -16 -16 -16 -16 -16 -15 -15 -15 -15 -14 -14 -14 -14 -14 -14 -13 -14 -14 -14 -14 -14 -13 -13 -13 -12 -12 -12 -12 -12 -12 -11 -12 -12 -12 -12 -13 -13
-12 -12 -13 -13 -13 -14 -15 -15 -15 -14 -15 -15 -15 -16 -15 -15 -15 -15 -15 -15 -14 -15 -14 -15 -14 -14 -14 -13 -13 -13 -13 -13 -14 -14 -13 -13 -12 -12 -13 -12 -12 -13 -13 -13 -12 -13 -12 -12 -13
-12 -13 -13 -13 -13 -14 -14 -14 -15 -15 -15 -15 -15 -15 -15 -15 -15 -15 -16 -15 -15 -14 -14 -14 -14 -14 -14 -14 -13 -13 -13 -13 -13 -13 -12 -12 -12 -12 -13 -13 -13 -13 -13 -13 -13 -13 -14 -13 -13
-12 -13 -13 -13 -13 -13 -13 -14 -15 -14 -15 -14 -15 -14 -15 -15 -16 -15 -15 -15 -15 -15 -14 -14 -14 -14 -14 -13 -14 -13 -13 -13 -13 -12 -12 -13 -13 -13 -13 -13 -13 -13 -13 -13 -13 -13 -13 -13 -13
Height
5849 5848 5848 5848 5850 5848 5850 5852 5849 5849 5852 5850 5853 5858 5858 5856 5857 5859 5861 5864 5867 5869 5870 5872 5874 5876 5877 5878 5879 5880 5881 5881 5882 5882 5883 5883 5884 5884 5885 5886 5886 5885 5886 5886 5886 5886 5885 5885 5885
5845 5843 5843 5843 5844 5842 5846 5845 5844 5844 5845 5842 5849 5851 5852 5848 5852 5854 5857 5860 5862 5865 5868 5869 5871 5872 5874 5876 5877 5878 5880 5880 5881 5881 5882 5882 5883 5883 5883 5884 5884 5884 5884 5885 5885 5885 5885 5885 5885
5839 5838 5838 5837 5836 5837 5839 5838 5837 5836 5837 5840 5842 5843 5843 5842 5848 5851 5851 5855 5857 5861 5863 5865 5868 5869 5870 5872 5874 5876 5878 5879 5880 5880 5881 5881 5881 5882 5881 5883 5883 5883 5883 5883 5884 5883 5884 5884 5884
5834 5833 5832 5830 5829 5830 5830 5833 5834 5831 5831 5832 5835 5835 5836 5838 5842 5846 5844 5849 5851 5856 5858 5861 5863 5865 5867 5869 5871 5872 5874 5877 5878 5878 5879 5879 5880 5880 5880 5881 5881 5881 5881 5881 5882 5881 5882 5883 5883
5828 5825 5823 5822 5823 5823 5822 5823 5826 5824 5823 5827 5828 5828 5828 5834 5835 5839 5840 5843 5845 5851 5853 5855 5858 5860 5863 5865 5867 5869 5871 5873 5876 5876 5877 5877 5878 5879 5878 5879 5880 5880 5879 5879 5879 5880 5880 5880 5882
5820 5817 5815 5813 5813 5813 5812 5813 5815 5819 5815 5818 5816 5821 5822 5828 5830 5831 5833 5836 5839 5844 5847 5850 5852 5855 5858 5860 5863 5865 5867 5869 5872 5874 5875 5875 5876 5876 5876 5877 5878 5878 5878 5878 5877 5878 5879 5879 5880
5813 5811 5809 5806 5805 5804 5804 5805 5804 5805 5805 5789 5809 5813 5818 5819 5820 5822 5825 5828 5832 5837 5841 5843 5847 5850 5853 5856 5859 5861 5863 5865 5868 5870 5872 5872 5874 5874 5874 5876 5875 5876 5876 5876 5876 5877 5878 5878 5879
5808 5806 5803 5800 5799 5799 5797 5797 5798 5797 5797 5801 5805 5807 5812 5798 5808 5808 5815 5821 5824 5830 5836 5837 5841 5844 5848 5851 5854 5856 5859 5861 5864 5866 5867 5869 5871 5873 5873 5874 5873 5874 5874 5875 5875 5876 5876 5877 5877
5803 5801 5798 5795 5793 5792 5790 5790 5790 5790 5790 5795 5798 5795 5793 5786 5779 5798 5809 5814 5818 5822 5829 5832 5835 5838 5842 5846 5849 5852 5854 5857 5859 5861 5863 5865 5867 5870 5871 5872 5871 5871 5872 5872 5872 5873 5874 5874 5875
5799 5797 5793 5790 5788 5786 5783 5782 5782 5781 5783 5784 5787 5787 5785 5792 5789 5789 5800 5800 5807 5816 5822 5827 5829 5833 5837 5840 5843 5847 5849 5852 5854 5857 5859 5862 5864 5865 5867 5869 5869 5869 5869 5870 5871 5871 5871 5871 5872
5794 5792 5788 5785 5783 5780 5775 5773 5773 5774 5777 5779 5780 5780 5779 5782 5785 5786 5795 5784 5801 5806 5817 5820 5824 5827 5832 5836 5838 5841 5844 5847 5850 5852 5854 5858 5859 5863 5863 5865 5866 5866 5865 5867 5868 5868 5868 5868 5868
5790 5786 5783 5780 5777 5774 5769 5766 5766 5768 5771 5772 5774 5775 5775 5775 5780 5784 5792 5798 5796 5802 5804 5814 5815 5820 5824 5831 5832 5837 5839 5841 5844 5847 5849 5853 5854 5859 5859 5861 5862 5863 5862 5863 5864 5865 5865 5865 5865
5784 5781 5777 5774 5772 5769 5765 5762 5763 5764 5765 5765 5767 5770 5770 5770 5774 5778 5782 5788 5793 5791 5770 5804 5805 5811 5818 5823 5828 5831 5835 5835 5839 5842 5845 5847 5849 5853 5855 5857 5858 5859 5859 5859 5860 5860 5861 5862 5862
5779 5776 5773 5770 5767 5765 5762 5759 5758 5758 5758 5758 5760 5763 5765 5766 5767 5771 5775 5781 5787 5789 5794 5797 5799 5807 5807 5816 5819 5825 5829 5831 5833 5836 5841 5843 5844 5847 5850 5852 5854 5854 5855 5855 5856 5856 5857 5857 5857
5776 5773 5770 5767 5763 5762 5759 5756 5754 5754 5753 5752 5754 5756 5757 5758 5760 5763 5766 5772 5779 5783 5785 5788 5790 5795 5800 5807 5813 5821 5822 5827 5830 5832 5835 5838 5839 5842 5844 5846 5849 5849 5850 5851 5851 5851 5852 5853 5853
5776 5770 5766 5763 5761 5759 5757 5754 5750 5748 5747 5745 5746 5747 5748 5751 5752 5756 5759 5763 5772 5776 5780 5781 5789 5796 5795 5802 5809 5814 5817 5822 5825 5827 5830 5832 5834 5837 5838 5841 5843 5844 5844 5846 5847 5847 5847 5848 5848
5771 5767 5765 5762 5758 5755 5752 5749 5745 5743 5740 5739 5738 5739 5740 5742 5745 5748 5752 5757 5761 5766 5770 5774 5783 5790 5790 5796 5804 5808 5812 5816 5819 5821 5824 5826 5828 5832 5834 5835 5837 5838 5839 5840 5841 5841 5842 5842 5842
5772 5767 5763 5760 5757 5753 5749 5745 5741 5738 5735 5733 5731 5730 5730 5731 5734 5738 5743 5748 5752 5758 5763 5770 5777 5782 5785 5789 5798 5802 5807 5811 5813 5816 5818 5819 5822 5825 5827 5830 5830 5833 5833 5833 5834 5835 5836 5836 5835
5770 5765 5760 5756 5754 5750 5746 5742 5737 5733 5728 5724 5721 5720 5720 5721 5723 5726 5733 5739 5746 5752 5758 5764 5770 5777 5772 5780 5790 5793 5799 5803 5806 5810 5811 5814 5816 5817 5819 5822 5823 5824 5825 5826 5827 5828 5828 5830 5828
5768 5763 5759 5754 5750 5747 5742 5736 5728 5724 5721 5717 5713 5711 5709 5710 5713 5717 5726 5732 5737 5743 5749 5753 5760 5765 5749 5769 5782 5788 5791 5794 5797 5802 5806 5808 5809 5810 5812 5813 5815 5815 5816 5818 5819 5821 5821 5822 5821
5766 5763 5757 5753 5748 5745 5738 5730 5722 5717 5711 5709 5707 5703 5702 5702 5705 5708 5715 5723 5728 5735 5739 5742 5751 5758 5760 5765 5775 5780 5785 5790 5792 5795 5799 5800 5801 5803 5804 5805 5806 5806 5808 5810 5810 5813 5812 5813 5812
5765 5760 5756 5752 5747 5742 5737 5729 5722 5717 5710 5703 5697 5694 5693 5693 5695 5699 5708 5716 5720 5726 5731 5734 5743 5756 5760 5761 5765 5770 5774 5781 5784 5788 5791 5792 5794 5794 5794 5795 5796 5798 5799 5801 5801 5803 5803 5804 5804
5766 5760 5755 5750 5746 5741 5735 5731 5721 5715 5710 5703 5695 5688 5683 5683 5687 5692 5700 5710 5712 5718 5724 5729 5738 5747 5745 5752 5756 5763 5769 5774 5777 5781 5782 5784 5785 5784 5785 5785 5787 5788 5790 5791 5792 5793 5793 5795 5794
5764 5760 5755 5750 5745 5739 5735 5730 5721 5714 5707 5700 5691 5681 5675 5675 5681 5687 5694 5702 5709 5716 5725 5726 5731 5736 5741 5742 5741 5745 5754 5767 5771 5774 5776 5776 5776 5775 5776 5776 5777 5779 5780 5781 5782 5783 5784 5784 5784
5764 5758 5755 5750 5744 5741 5736 5727 5720 5714 5708 5699 5691 5682 5676 5675 5682 5687 5694 5700 5708 5714 5721 5725 5725 5728 5734 5737 5742 5745 5747 5756 5765 5767 5769 5769 5768 5767 5766 5767 5767 5770 5771 5772 5772 5773 5774 5775 5773
5763 5759 5754 5748 5744 5741 5735 5728 5724 5715 5707 5700 5694 5687 5682 5682 5685 5691 5694 5701 5708 5712 5720 5727 5728 5732 5739 5743 5745 5745 5750 5755 5757 5762 5761 5760 5760 5759 5758 5759 5760 5762 5762 5762 5763 5764 5765 5764 5765
5763 5759 5754 5749 5745 5739 5733 5729 5724 5717 5711 5705 5698 5694 5691 5688 5690 5696 5698 5704 5710 5715 5720 5728 5727 5733 5740 5742 5744 5745 5746 5751 5752 5754 5756 5754 5755 5755 5755 5754 5754 5755 5755 5754 5756 5757 5758 5758 5759
5763 5760 5756 5750 5745 5739 5736 5733 5728 5722 5717 5710 5704 5700 5698 5696 5698 5702 5705 5709 5714 5718 5720 5725 5729 5730 5736 5739 5742 5746 5748 5749 5748 5749 5752 5751 5750 5750 5750 5750 5750 5750 5751 5750 5752 5754 5754 5754 5753
5761 5759 5755 5750 5746 5742 5738 5735 5729 5726 5721 5716 5711 5707 5704 5703 5705 5708 5711 5714 5717 5719 5722 5724 5728 5730 5733 5735 5738 5742 5742 5744 5745 5746 5747 5744 5744 5743 5744 5745 5745 5746 5746 5746 5747 5748 5749 5749 5749
5758 5756 5754 5751 5747 5742 5739 5735 5732 5729 5725 5721 5717 5713 5711 5711 5712 5713 5716 5718 5720 5722 5723 5726 5727 5729 5732 5734 5736 5738 5739 5739 5739 5739 5739 5739 5740 5740 5740 5742 5742 5742 5742 5742 5742 5742 5742 5741 5740
Wind_Speed
19 21 23 24 25 25 24 26 30 34 31 36 33 29 30 33 33 33 29 28 26 24 22 20 18 17 17 15 14 14 12 10 9 7 5 4 3 3 3 4 5 5 5 5 5 4 5 6 6
22 24 25 28 28 29 24 27 27 33 32 39 34 32 30 35 35 33 30 28 28 27 25 24 22 20 19 18 17 16 14 12 10 8 6 4 3 3 4 5 7 7 7 7 6 6 7 7 5
24 26 29 31 31 31 28 27 24 22 38 39 34 35 35 41 35 33 35 32 30 30 28 27 26 24 22 21 20 18 17 14 12 9 7 5 4 4 6 6 7 7 8 8 9 8 9 9 8
26 29 32 34 35 36 33 24 27 34 40 37 36 37 39 40 36 34 37 33 33 30 30 29 28 27 25 23 22 21 19 17 15 13 9 7 5 6 6 7 7 7 8 9 9 9 11 12 11
29 32 36 37 38 39 38 33 30 38 42 35 39 39 42 40 39 36 37 35 34 30 31 31 30 29 28 26 25 23 23 20 18 16 12 9 8 8 7 8 8 7 7 7 8 9 9 10 9
31 33 33 32 33 37 39 31 30 37 38 48 42 43 43 39 39 39 39 36 34 32 32 32 31 32 29 28 27 26 25 23 21 19 16 12 12 10 9 9 8 7 5 5 5 6 5 5 4
29 26 25 25 25 28 31 26 35 25 43 18 38 34 34 43 43 45 40 38 36 32 30 33 32 32 31 29 28 26 25 25 23 21 18 15 14 13 12 10 9 8 7 6 5 6 6 7 6
22 23 22 23 22 23 25 29 35 40 46 45 36 39 40 43 43 43 42 39 36 35 30 33 32 32 32 31 29 28 27 26 24 22 20 18 17 16 13 12 11 10 9 9 9 9 9 10 10
23 21 21 23 24 25 30 30 31 33 36 34 34 42 53 24 23 42 37 42 39 36 33 32 32 32 33 32 31 30 30 28 26 25 22 21 20 18 16 13 14 13 12 13 13 13 13 12 12
20 18 22 25 25 28 29 32 30 31 29 28 33 40 52 45 41 39 40 48 40 37 34 32 33 33 33 33 33 33 32 30 28 27 25 23 19 18 18 16 15 16 15 15 15 15 16 15 15
21 23 26 27 25 24 28 28 27 28 28 28 30 37 42 48 49 52 36 39 33 38 35 33 34 34 35 34 35 34 34 33 30 29 26 23 21 18 19 18 16 18 16 17 17 18 18 18 18
27 29 28 27 24 24 22 19 22 25 26 28 28 34 38 42 44 42 39 37 47 35 46 33 37 39 38 35 36 35 35 34 33 31 27 23 23 19 20 19 18 20 18 18 20 20 20 20 20
24 25 25 23 19 24 20 17 20 24 25 29 31 29 34 38 39 38 40 40 41 47 27 29 36 36 40 34 37 37 35 36 35 32 27 24 24 20 21 21 20 21 20 20 22 21 22 21 22
24 22 20 18 18 22 17 18 20 22 25 28 30 30 32 35 37 37 40 44 45 44 40 42 41 44 38 40 38 36 37 37 36 31 28 27 25 21 21 22 23 22 22 22 23 22 23 24 25
24 21 20 16 18 18 15 17 17 20 26 30 31 33 33 36 36 36 40 43 46 45 42 43 45 43 42 45 43 36 39 39 36 34 30 28 29 25 24 23 24 23 23 23 23 24 25 26 26
17 21 23 24 19 20 18 19 21 22 21 26 28 33 36 37 38 37 36 41 45 48 47 49 49 51 50 41 38 34 36 39 36 34 32 30 31 29 26 24 25 25 23 25 26 26 27 28 28
26 24 21 20 21 20 22 22 22 21 20 18 24 27 34 37 37 38 37 37 44 48 50 48 43 40 36 33 29 34 41 39 36 34 33 31 32 30 30 27 27 26 26 28 29 28 29 28 31
20 21 20 19 20 20 20 20 19 20 23 22 23 25 34 37 38 39 36 38 40 46 49 43 37 37 35 39 36 36 39 35 33 33 35 34 33 32 31 31 31 33 34 32 31 31 29 30 28
20 19 20 21 19 22 22 22 23 22 22 22 25 25 30 38 41 43 41 35 37 41 46 45 42 39 45 41 42 37 33 33 35 32 38 35 33 34 36 35 38 37 40 34 33 32 31 31 32
20 20 21 23 23 22 23 27 31 27 23 24 24 23 23 33 42 41 37 32 36 40 46 49 48 43 49 52 42 37 42 37 36 32 30 33 33 34 37 39 38 43 40 35 34 34 35 35 35
19 18 18 20 21 21 26 32 32 30 33 29 22 24 22 24 32 40 39 36 35 39 48 53 52 54 40 41 45 42 45 38 32 31 32 31 33 35 37 40 43 42 43 40 38 36 36 31 32
19 20 19 19 19 22 27 31 28 26 28 32 33 26 21 22 23 31 36 34 35 39 48 54 52 44 44 36 35 34 35 43 27 31 31 28 31 32 29 37 41 43 42 37 38 39 39 35 37
17 18 17 18 20 22 27 27 24 26 24 24 24 23 24 17 18 24 32 33 38 41 46 49 51 47 36 28 35 36 36 32 30 35 34 37 33 36 37 36 39 41 40 40 41 42 44 39 45
17 16 17 15 19 24 26 28 27 27 28 25 29 27 17 11 13 17 28 34 36 37 37 38 38 41 47 24 32 30 26 32 31 29 33 35 36 33 36 34 39 38 36 36 39 46 44 40 42
17 18 18 19 18 18 23 32 29 27 25 28 29 26 13 6 10 13 25 32 32 33 32 31 38 40 44 31 17 9 20 29 26 32 34 36 32 36 35 30 27 35 40 38 38 37 43 46 43
17 16 18 20 19 15 23 32 31 26 29 29 26 24 14 8 15 13 19 27 29 30 28 27 34 40 38 42 45 35 12 28 32 20 17 25 23 20 18 26 24 30 26 30 38 41 41 36 21
16 16 18 17 18 20 25 31 33 26 27 27 27 21 19 13 15 13 15 23 24 24 24 24 28 26 29 32 32 28 28 30 32 21 18 16 14 14 12 10 12 19 14 17 23 20 11 17 20
14 15 14 15 19 20 18 23 28 23 23 26 29 20 18 18 15 17 13 18 18 18 20 19 21 21 21 26 25 29 30 27 29 27 22 17 23 21 17 11 16 11 6 5 12 22 18 19 23
13 13 14 15 15 16 15 18 24 22 23 20 23 24 18 14 17 15 13 14 15 16 16 17 16 18 19 20 18 20 18 20 25 19 20 25 24 17 14 11 7 9 9 11 13 16 16 20 21
16 14 14 15 14 14 14 19 18 21 20 20 17 19 15 14 15 12 9 6 8 10 12 14 16 17 19 19 19 20 18 19 21 24 20 16 9 9 9 11 13 13 13 14 15 15 20 23 26
Wind_Direction
290 288 286 281 281 278 271 263 261 261 258 256 256 254 247 249 249 246 243 237 234 233 231 230 230 233 231 223 224 222 218 207 208 199 198 196 236 257 269 281 281 280 277 272 273 277 278 279 281
293 289 284 281 281 277 272 262 268 260 259 255 254 253 252 248 246 249 249 241 238 235 235 233 231 233 232 231 223 222 225 216 214 206 211 215 239 274 293 284 277 276 274 273 272 274 277 278 282
287 282 279 276 274 275 269 264 241 264 255 257 257 252 249 250 248 252 250 244 240 237 234 234 233 232 231 232 229 224 227 223 220 216 226 239 266 286 291 293 288 275 272 272 271 274 276 277 274
287 283 279 273 269 270 269 255 247 250 258 256 251 250 249 251 250 245 247 244 242 238 238 234 233 233 233 229 229 229 232 230 227 226 231 246 269 282 286 288 298 288 273 276 279 277 278 275 272
290 286 280 277 272 269 269 268 252 250 257 259 255 248 246 247 250 248 249 245 243 235 238 236 234 234 234 233 230 227 230 233 235 236 240 249 263 275 290 288 282 290 284 277 287 284 277 275 264
299 295 296 290 278 268 267 266 256 249 252 254 243 246 249 245 248 249 247 247 242 237 236 236 235 234 233 235 231 230 230 232 232 238 244 251 263 277 284 286 286 286 292 297 298 298 292 277 264
306 306 303 300 289 273 267 241 241 251 240 226 240 231 253 252 249 245 244 243 242 237 236 237 235 234 231 232 233 234 233 234 234 236 245 253 264 270 279 282 280 280 291 284 274 273 271 266 255
306 308 308 307 297 279 271 269 263 255 248 262 244 246 244 256 235 229 237 241 242 239 232 237 236 235 234 232 232 233 235 234 236 240 241 251 261 268 270 275 274 275 279 276 269 267 258 259 257
308 304 307 305 301 286 274 273 269 263 259 254 249 247 235 238 230 233 238 242 240 240 236 236 235 233 234 233 233 232 233 234 236 238 242 246 253 261 262 269 272 272 272 270 265 262 261 258 261
304 304 310 312 306 294 287 277 271 264 256 244 241 244 247 249 251 235 222 244 230 236 237 238 238 237 234 233 232 233 234 234 235 238 242 247 255 255 260 262 269 269 269 267 263 258 259 261 264
294 296 304 308 314 310 293 276 263 263 257 249 241 244 250 243 244 249 243 258 244 232 235 238 240 238 237 233 232 232 234 236 236 238 242 247 253 255 255 261 266 266 268 267 266 266 264 268 268
293 292 297 299 309 324 309 286 257 261 259 256 251 251 252 253 246 252 246 243 241 243 235 230 238 238 237 232 237 234 234 236 237 238 242 246 249 252 260 260 262 267 270 269 267 266 267 269 271
312 307 299 295 313 326 312 285 268 266 264 255 251 249 252 253 250 242 240 239 235 241 237 228 244 237 234 235 232 235 234 235 237 238 239 243 245 250 258 259 263 267 271 271 271 271 272 273 275
320 320 316 310 323 331 329 300 280 266 262 260 253 248 247 251 251 246 236 234 236 240 242 238 247 242 235 233 233 235 236 237 239 238 235 242 243 246 253 259 263 267 272 274 273 274 276 279 279
328 324 318 320 329 331 335 319 308 281 269 266 259 254 248 247 246 245 239 233 233 237 238 241 245 247 249 230 234 230 235 239 240 239 238 242 245 245 251 256 259 264 269 271 274 278 280 283 283
319 327 334 324 322 321 318 316 312 310 289 271 264 255 253 250 247 245 242 239 230 233 233 235 241 241 228 227 219 226 235 237 237 242 245 245 249 248 252 252 260 263 268 274 277 280 284 286 285
342 338 331 325 330 327 322 317 317 312 308 286 269 256 256 254 248 243 241 239 235 231 233 239 239 244 246 250 228 237 229 238 240 241 244 249 252 252 261 254 257 262 269 273 275 280 285 288 287
337 329 327 328 339 339 334 327 326 321 312 299 288 272 253 244 244 240 238 237 234 229 232 236 242 251 245 238 226 233 233 238 240 247 246 248 250 260 260 258 261 266 270 270 274 280 280 285 284
341 336 339 340 343 337 336 329 318 320 314 295 298 288 257 241 243 236 233 233 234 231 227 229 232 234 241 230 234 232 233 244 242 247 248 249 253 254 259 261 266 268 265 266 272 277 280 286 282
351 344 341 338 340 344 335 336 329 332 324 315 300 293 265 244 240 240 236 231 226 225 223 225 224 225 217 228 229 235 236 234 234 240 247 252 258 264 265 260 262 269 272 261 267 271 279 283 278
1 348 348 345 343 343 353 347 341 341 332 327 312 298 278 259 246 238 232 223 221 221 221 223 224 220 210 220 217 228 232 237 235 239 245 253 258 266 267 265 267 270 268 266 272 272 279 282 275
3 358 353 347 344 344 355 351 333 335 334 334 325 313 286 274 244 231 229 221 218 221 221 226 228 231 241 226 217 218 216 226 231 232 238 245 266 266 271 268 268 270 272 274 273 271 278 284 281
4 4 355 351 349 354 0 348 355 355 344 337 328 308 298 275 240 225 215 217 217 219 224 227 231 228 206 216 206 218 220 231 232 240 246 250 268 277 276 276 268 265 264 272 274 277 276 275 278
5 9 2 357 358 8 2 3 6 1 358 351 345 345 321 242 213 212 202 205 219 220 228 236 235 229 240 213 192 228 205 234 235 242 250 255 257 274 262 268 265 266 265 266 274 272 269 279 274
357 11 6 10 2 6 5 15 6 8 2 0 2 6 20 152 164 172 192 204 213 219 227 231 238 240 235 243 220 210 209 221 237 243 259 258 271 265 263 265 268 264 265 267 266 273 269 272 280
359 5 12 13 8 360 13 18 8 13 15 9 9 17 37 113 170 169 187 197 206 217 222 230 237 246 248 251 259 276 272 234 244 264 272 293 306 274 296 274 259 257 264 260 266 270 269 275 250
354 1 14 10 12 10 22 13 10 13 16 20 15 21 41 98 141 138 155 183 204 215 228 231 249 264 261 260 265 281 296 292 292 292 310 310 284 296 308 280 266 262 266 265 264 271 270 246 266
349 356 8 16 20 18 14 19 18 20 20 28 25 34 54 79 128 144 143 177 202 223 233 242 253 272 271 272 272 277 280 284 292 297 307 309 309 299 294 260 249 242 232 250 246 247 266 261 269
345 351 356 13 18 17 16 26 27 28 26 31 39 42 47 87 113 134 155 174 197 221 235 250 262 268 273 277 279 278 292 295 287 294 297 304 301 288 269 236 244 251 258 259 266 268 271 274 277
337 347 351 357 9 14 13 28 26 27 25 29 46 50 40 94 113 126 145 168 210 231 247 255 264 274 277 279 283 288 291 302 303 301 297 289 273 235 224 243 252 257 262 266 265 269 277 282 285